• In Deutschland
  • Länderverzeichnis
  • Für 7 Tage
  • Wassertemperatur
  • Satellitenkarten
  • Wetterkarte
  • Widgets
  • user-avatar
    Anmelden

    Stündliche Wetter Lörrach

    Heute, 12 Dezember, Dienstag

    Zeit Temperatur Niederschläge Wind Luftdruck Luftfeuchtigkeit
    00:00 +3°C° 0,1 mm 5 m/S 717 mmHg 86%
    01:00 +3°C° 0,1 mm 5 m/S 718 mmHg 86%
    02:00 +2°C° 0,1 mm 5 m/S 719 mmHg 86%
    03:00 +1°C° 0,1 mm 6 m/S 721 mmHg 85%
    04:00 +1°C° 0,1 mm 6 m/S 722 mmHg 84%
    05:00 0°C° 0 mm 5 m/S 723 mmHg 85%
    06:00 0°C° 0 mm 5 m/S 725 mmHg 85%
    07:00 0°C° 0 mm 4 m/S 726 mmHg 86%
    08:00 +1°C° 0,1 mm 3 m/S 727 mmHg 86%
    09:00 +1°C° 0,1 mm 3 m/S 728 mmHg 85%
    10:00 +1°C° 0,1 mm 3 m/S 730 mmHg 85%
    11:00 +2°C° 0,1 mm 3 m/S 730 mmHg 84%
    12:00 +2°C° 0,1 mm 3 m/S 731 mmHg 83%
    13:00 +2°C° 0,1 mm 3 m/S 732 mmHg 81%
    14:00 +2°C° 0 mm 3 m/S 732 mmHg 82%
    15:00 +3°C° 0 mm 2 m/S 733 mmHg 84%
    16:00 +3°C° 0 mm 2 m/S 733 mmHg 85%
    17:00 +2°C° 0 mm 2 m/S 734 mmHg 87%
    18:00 +1°C° 0 mm 2 m/S 735 mmHg 89%
    19:00 -1°C° 0 mm 2 m/S 735 mmHg 91%
    20:00 -1°C° 0 mm 2 m/S 736 mmHg 91%
    21:00 -2°C° 0 mm 2 m/S 737 mmHg 91%
    22:00 -2°C° 0 mm 2 m/S 737 mmHg 91%
    23:00 -2°C° 0 mm 2 m/S 738 mmHg 90%

    Morgen, 13 Dezember, Mittwoch

    Zeit Temperatur Niederschläge Wind Luftdruck Luftfeuchtigkeit
    00:00 -2°C° 0 mm 2 m/S 738 mmHg 89%
    01:00 -2°C° 0 mm 2 m/S 738 mmHg 88%
    02:00 -2°C° 0 mm 2 m/S 738 mmHg 87%
    03:00 -3°C° 0 mm 2 m/S 738 mmHg 86%
    04:00 -3°C° 0 mm 2 m/S 738 mmHg 85%
    05:00 -3°C° 0 mm 2 m/S 738 mmHg 83%
    06:00 -3°C° 0 mm 2 m/S 738 mmHg 82%
    07:00 -3°C° 0 mm 2 m/S 738 mmHg 81%
    08:00 -2°C° 0 mm 3 m/S 737 mmHg 77%
    09:00 -1°C° 0 mm 3 m/S 737 mmHg 73%
    10:00 0°C° 0 mm 3 m/S 736 mmHg 69%
    11:00 +1°C° 0 mm 3 m/S 735 mmHg 67%
    12:00 +3°C° 0 mm 4 m/S 734 mmHg 64%
    13:00 +4°C° 0 mm 4 m/S 733 mmHg 61%
    14:00 +4°C° 0,1 mm 4 m/S 732 mmHg 64%
    15:00 +4°C° 0,1 mm 4 m/S 732 mmHg 67%
    16:00 +3°C° 0,1 mm 3 m/S 731 mmHg 70%
    17:00 +4°C° 0,4 mm 4 m/S 731 mmHg 73%
    18:00 +4°C° 0,4 mm 4 m/S 731 mmHg 76%
    19:00 +3°C° 0,4 mm 5 m/S 731 mmHg 78%
    20:00 +3°C° 0,2 mm 5 m/S 730 mmHg 79%
    21:00 +4°C° 0,2 mm 4 m/S 729 mmHg 81%
    22:00 +4°C° 0,2 mm 4 m/S 729 mmHg 82%
    23:00 +5°C° 0,4 mm 5 m/S 728 mmHg 83%

    übermorgen, 14 Dezember, Donnerstag

    Zeit Temperatur Niederschläge Wind Luftdruck Luftfeuchtigkeit
    00:00 +5°C° 0,4 mm 5 m/S 728 mmHg 85%
    01:00 +5°C° 0,4 mm 5 m/S 727 mmHg 86%
    02:00 +5°C° 0,3 mm 5 m/S 727 mmHg 87%
    03:00 +6°C° 0,3 mm 5 m/S 727 mmHg 87%
    04:00 +6°C° 0,3 mm 5 m/S 727 mmHg 88%
    05:00 +6°C° 0,3 mm 5 m/S 727 mmHg 88%
    06:00 +5°C° 0,3 mm 5 m/S 728 mmHg 88%
    07:00 +5°C° 0,3 mm 5 m/S 728 mmHg 87%
    08:00 +5°C° 0,1 mm 5 m/S 728 mmHg 87%
    09:00 +4°C° 0,1 mm 4 m/S 728 mmHg 86%
    10:00 +4°C° 0,1 mm 4 m/S 728 mmHg 86%
    11:00 +5°C° 0,1 mm 4 m/S 728 mmHg 82%
    12:00 +5°C° 0,1 mm 5 m/S 727 mmHg 79%
    13:00 +5°C° 0,1 mm 6 m/S 726 mmHg 75%
    14:00 +6°C° 0,2 mm 5 m/S 726 mmHg 76%
    15:00 +5°C° 0,2 mm 5 m/S 725 mmHg 78%
    16:00 +5°C° 0,2 mm 5 m/S 724 mmHg 79%
    17:00 +4°C° 0,9 mm 6 m/S 723 mmHg 80%
    18:00 +4°C° 0,9 mm 6 m/S 722 mmHg 81%
    19:00 +4°C° 0,9 mm 7 m/S 722 mmHg 82%
    20:00 +4°C° 2,3 mm 7 m/S 722 mmHg 82%
    21:00 +3°C° 2,3 mm 7 m/S 723 mmHg 82%
    22:00 +3°C° 2,3 mm 7 m/S 723 mmHg 83%
    23:00 +3°C° 0,6 mm 6 m/S 723 mmHg 83%

    15 Dezember, Freitag

    Zeit Temperatur Niederschläge Wind Luftdruck Luftfeuchtigkeit
    00:00 +2°C° 0,6 mm 5 m/S 723 mmHg 84%
    01:00 +3°C° 0,6 mm 4 m/S 724 mmHg 85%
    02:00 +1°C° 0,3 mm 4 m/S 724 mmHg 86%
    03:00 +2°C° 0,3 mm 3 m/S 724 mmHg 87%
    04:00 +2°C° 0,3 mm 3 m/S 724 mmHg 88%
    05:00 +2°C° 0,2 mm 3 m/S 724 mmHg 88%
    06:00 +2°C° 0,2 mm 3 m/S 724 mmHg 87%
    07:00 0°C° 0,2 mm 4 m/S 725 mmHg 87%
    08:00 +1°C° 0 mm 4 m/S 724 mmHg 85%
    09:00 +1°C° 0 mm 4 m/S 724 mmHg 82%
    10:00 +1°C° 0 mm 5 m/S 724 mmHg 80%
    11:00 +2°C° 0,1 mm 5 m/S 724 mmHg 79%
    12:00 +2°C° 0,1 mm 5 m/S 724 mmHg 78%
    13:00 +3°C° 0,1 mm 5 m/S 723 mmHg 76%
    14:00 +2°C° 0,2 mm 5 m/S 723 mmHg 79%
    15:00 +2°C° 0,2 mm 5 m/S 723 mmHg 81%
    16:00 +3°C° 0,2 mm 4 m/S 723 mmHg 84%
    17:00 +2°C° 0,5 mm 5 m/S 723 mmHg 84%
    18:00 +1°C° 0,5 mm 5 m/S 724 mmHg 85%
    19:00 +1°C° 0,5 mm 5 m/S 724 mmHg 86%
    20:00 +1°C° 0,4 mm 5 m/S 725 mmHg 88%
    21:00 +1°C° 0,4 mm 4 m/S 726 mmHg 89%
    22:00 +1°C° 0,4 mm 3 m/S 727 mmHg 90%
    23:00 +1°C° 0,1 mm 3 m/S 727 mmHg 91%

    16 Dezember, Samstag

    Zeit Temperatur Niederschläge Wind Luftdruck Luftfeuchtigkeit
    00:00 +1°C° 0,1 mm 3 m/S 728 mmHg 92%
    01:00 0°C° 0,1 mm 3 m/S 728 mmHg 92%
    02:00 0°C° 0,1 mm 3 m/S 729 mmHg 92%
    03:00 0°C° 0,1 mm 3 m/S 729 mmHg 92%
    04:00 0°C° 0,1 mm 3 m/S 730 mmHg 92%
    05:00 0°C° 0,1 mm 3 m/S 730 mmHg 91%
    06:00 -1°C° 0,1 mm 3 m/S 731 mmHg 90%
    07:00 -1°C° 0,1 mm 3 m/S 731 mmHg 90%
    08:00 0°C° 0,1 mm 3 m/S 732 mmHg 88%
    09:00 0°C° 0,1 mm 3 m/S 732 mmHg 86%
    10:00 0°C° 0,1 mm 4 m/S 732 mmHg 84%
    11:00 0°C° 0,1 mm 4 m/S 732 mmHg 83%
    12:00 +1°C° 0,1 mm 4 m/S 732 mmHg 82%
    13:00 +1°C° 0,1 mm 4 m/S 732 mmHg 80%
    14:00 +2°C° 0,1 mm 3 m/S 732 mmHg 82%
    15:00 +1°C° 0,1 mm 3 m/S 732 mmHg 84%
    16:00 +2°C° 0,1 mm 2 m/S 733 mmHg 86%
    17:00 +1°C° 0,1 mm 2 m/S 733 mmHg 87%
    18:00 +1°C° 0,1 mm 2 m/S 733 mmHg 89%
    19:00 -1°C° 0,1 mm 2 m/S 734 mmHg 91%
    20:00 -1°C° 0,1 mm 2 m/S 734 mmHg 91%
    21:00 -1°C° 0,1 mm 2 m/S 734 mmHg 91%
    22:00 +1°C° 0,1 mm 1 m/S 735 mmHg 92%
    23:00 +1°C° 0,2 mm 1 m/S 735 mmHg 92%

    17 Dezember, Sonntag

    Zeit Temperatur Niederschläge Wind Luftdruck Luftfeuchtigkeit
    00:00 +1°C° 0,2 mm 1 m/S 735 mmHg 93%
    01:00 +1°C° 0,2 mm 1 m/S 735 mmHg 93%
    02:00 +1°C° 0,2 mm 1 m/S 736 mmHg 94%
    03:00 +1°C° 0,2 mm 1 m/S 736 mmHg 94%
    04:00 0°C° 0,2 mm 1 m/S 736 mmHg 94%
    05:00 0°C° 0,1 mm 1 m/S 737 mmHg 94%
    06:00 0°C° 0,1 mm 1 m/S 737 mmHg 94%
    07:00 0°C° 0,1 mm 1 m/S 737 mmHg 94%
    08:00 +1°C° 0,1 mm 1 m/S 738 mmHg 92%
    09:00 +1°C° 0,1 mm 1 m/S 738 mmHg 91%
    10:00 +1°C° 0,1 mm 1 m/S 739 mmHg 89%
    11:00 +2°C° 0 mm 1 m/S 739 mmHg 86%
    12:00 +1°C° 0 mm 2 m/S 739 mmHg 82%
    13:00 +2°C° 0 mm 2 m/S 739 mmHg 79%
    14:00 +1°C° 0 mm 2 m/S 739 mmHg 81%
    15:00 +1°C° 0 mm 2 m/S 739 mmHg 83%
    16:00 +1°C° 0 mm 1 m/S 739 mmHg 85%
    17:00 0°C° 0 mm 1 m/S 740 mmHg 87%
    18:00 -3°C° 0 mm 2 m/S 740 mmHg 88%
    19:00 -3°C° 0 mm 2 m/S 741 mmHg 90%
    20:00 -4°C° 0 mm 2 m/S 741 mmHg 89%
    21:00 -4°C° 0 mm 2 m/S 741 mmHg 87%
    22:00 -4°C° 0 mm 2 m/S 741 mmHg 86%
    23:00 -4°C° 0 mm 2 m/S 741 mmHg 85%
    Mehr zeigen